Time,TemperatureF,DewpointF,PressureIn,WindDirection,WindDirectionDegrees,WindSpeedMPH,WindSpeedGustMPH,Humidity,HourlyPrecipIn,Conditions,Clouds,dailyrainin,SoftwareType,DateUTC
2013-05-06 00:01:00,42.0,40.0,-100.00,South,174,1.0,2.0,92,-99.99,,,-99.99,,2013-05-06 07:01:00,
2013-05-06 00:11:00,42.0,40.0,-100.00,South,174,1.0,2.0,92,-99.99,,,-99.99,,2013-05-06 07:11:00,
2013-05-06 00:22:00,42.0,40.0,-100.00,SSE,165,1.0,2.0,92,-99.99,,,-99.99,,2013-05-06 07:22:00,
2013-05-06 00:31:00,42.0,40.0,-100.00,SSE,162,1.0,2.0,92,-99.99,,,-99.99,,2013-05-06 07:31:00,
2013-05-06 00:42:00,42.0,40.0,-100.00,South,172,1.0,2.0,92,-99.99,,,-99.99,,2013-05-06 07:42:00,
2013-05-06 00:52:00,42.0,40.0,-100.00,SSE,158,0.0,1.0,92,-99.99,,,-99.99,,2013-05-06 07:52:00,
2013-05-06 01:01:00,42.0,40.0,-100.00,SSE,158,0.0,1.0,92,-99.99,,,-99.99,,2013-05-06 08:01:00,
2013-05-06 01:12:00,42.0,40.0,-100.00,NE,51,1.0,5.0,91,-99.99,,,-99.99,,2013-05-06 08:12:00,
2013-05-06 01:22:00,42.0,40.0,-100.00,ENE,72,0.0,3.0,91,-99.99,,,-99.99,,2013-05-06 08:22:00,
2013-05-06 01:31:00,43.0,40.0,-100.00,NE,47,1.0,4.0,91,-99.99,,,-99.99,,2013-05-06 08:31:00,
2013-05-06 01:41:00,43.0,41.0,-100.00,NW,322,0.0,3.0,91,-99.99,,,-99.99,,2013-05-06 08:41:00,
2013-05-06 01:52:00,43.0,41.0,-100.00,NNW,346,0.0,4.0,91,-99.99,,,-99.99,,2013-05-06 08:52:00,
2013-05-06 02:01:00,43.0,41.0,-100.00,NE,34,1.0,3.0,91,-99.99,,,-99.99,,2013-05-06 09:01:00,
2013-05-06 02:11:00,44.0,42.0,-100.00,North,354,1.0,3.0,91,-99.99,,,-99.99,,2013-05-06 09:11:00,
2013-05-06 02:22:00,44.0,41.0,-100.00,North,354,1.0,3.0,90,-99.99,,,-99.99,,2013-05-06 09:22:00,
2013-05-06 02:32:00,43.0,40.0,-100.00,NNE,24,1.0,3.0,89,-99.99,,,-99.99,,2013-05-06 09:32:00,
2013-05-06 02:42:00,43.0,41.0,-100.00,NNE,31,1.0,6.0,91,-99.99,,,-99.99,,2013-05-06 09:42:00,
2013-05-06 02:53:00,43.0,41.0,-100.00,NNE,31,1.0,6.0,91,-99.99,,,-99.99,,2013-05-06 09:53:00,
2013-05-06 03:02:00,41.0,39.0,-100.00,NE,37,2.0,5.0,93,-99.99,,,-99.99,,2013-05-06 10:02:00,
2013-05-06 03:12:00,40.0,38.0,-100.00,NNE,16,1.0,4.0,94,-99.99,,,-99.99,,2013-05-06 10:12:00,
2013-05-06 03:22:00,40.0,39.0,-100.00,NE,34,1.0,4.0,95,-99.99,,,-99.99,,2013-05-06 10:22:00,
2013-05-06 03:32:00,39.0,38.0,-100.00,NNE,27,2.0,4.0,95,-99.99,,,-99.99,,2013-05-06 10:32:00,
2013-05-06 03:41:00,39.0,38.0,-100.00,NNE,27,2.0,4.0,95,-99.99,,,-99.99,,2013-05-06 10:41:00,
2013-05-06 03:52:00,39.0,38.0,-100.00,NE,44,0.0,2.0,95,-99.99,,,-99.99,,2013-05-06 10:52:00,
2013-05-06 04:02:00,39.0,38.0,-100.00,NE,44,0.0,2.0,95,-99.99,,,-99.99,,2013-05-06 11:02:00,
2013-05-06 04:12:00,39.0,38.0,-100.00,SSE,167,1.0,3.0,95,-99.99,,,-99.99,,2013-05-06 11:12:00,
2013-05-06 04:22:00,39.0,38.0,-100.00,East,82,0.0,2.0,95,-99.99,,,-99.99,,2013-05-06 11:22:00,
2013-05-06 04:31:00,39.0,38.0,-100.00,SE,141,0.0,2.0,95,-99.99,,,-99.99,,2013-05-06 11:31:00,
2013-05-06 04:42:00,39.0,38.0,-100.00,SSE,160,1.0,2.0,96,-99.99,,,-99.99,,2013-05-06 11:42:00,
2013-05-06 04:52:00,38.0,37.0,-100.00,SSE,154,1.0,2.0,96,-99.99,,,-99.99,,2013-05-06 11:52:00,
2013-05-06 05:01:00,39.0,38.0,-100.00,South,181,0.0,2.0,96,-99.99,,,-99.99,,2013-05-06 12:01:00,
2013-05-06 05:12:00,39.0,38.0,-100.00,East,100,0.0,3.0,95,-99.99,,,-99.99,,2013-05-06 12:12:00,
2013-05-06 05:21:00,38.0,37.0,-100.00,SSE,148,0.0,1.0,95,-99.99,,,-99.99,,2013-05-06 12:21:00,
2013-05-06 05:32:00,38.0,37.0,-100.00,SSE,148,0.0,1.0,95,-99.99,,,-99.99,,2013-05-06 12:32:00,
2013-05-06 05:41:00,37.0,36.0,-100.00,SSE,160,0.0,3.0,96,-99.99,,,-99.99,,2013-05-06 12:41:00,
2013-05-06 05:51:00,37.0,36.0,-100.00,SSE,165,0.0,2.0,96,-99.99,,,-99.99,,2013-05-06 12:51:00,
2013-05-06 06:01:00,37.0,36.0,-100.00,SE,138,0.0,2.0,96,-99.99,,,-99.99,,2013-05-06 13:01:00,
2013-05-06 06:11:00,36.0,35.0,-100.00,SE,143,0.0,1.0,96,-99.99,,,-99.99,,2013-05-06 13:11:00,
2013-05-06 06:21:00,36.0,35.0,-100.00,South,178,1.0,2.0,96,-99.99,,,-99.99,,2013-05-06 13:21:00,
2013-05-06 06:31:00,36.0,35.0,-100.00,South,178,1.0,2.0,96,-99.99,,,-99.99,,2013-05-06 13:31:00,
2013-05-06 06:42:00,36.0,35.0,-100.00,South,178,1.0,2.0,96,-99.99,,,-99.99,,2013-05-06 13:42:00,
2013-05-06 06:52:00,36.0,35.0,-100.00,SE,143,0.0,4.0,96,-99.99,,,-99.99,,2013-05-06 13:52:00,
2013-05-06 07:01:00,36.0,35.0,-100.00,ENE,78,0.0,3.0,96,-99.99,,,-99.99,,2013-05-06 14:01:00,
2013-05-06 07:11:00,36.0,35.0,-100.00,ENE,78,0.0,3.0,96,-99.99,,,-99.99,,2013-05-06 14:11:00,
2013-05-06 07:21:00,35.0,34.0,-100.00,NNE,24,1.0,5.0,96,-99.99,,,-99.99,,2013-05-06 14:21:00,
2013-05-06 07:32:00,35.0,34.0,-100.00,NE,45,1.0,4.0,96,-99.99,,,-99.99,,2013-05-06 14:32:00,
2013-05-06 07:42:00,35.0,34.0,-100.00,NE,45,1.0,4.0,96,-99.99,,,-99.99,,2013-05-06 14:42:00,
2013-05-06 07:51:00,34.0,33.0,-100.00,WNW,296,0.0,3.0,97,-99.99,,,-99.99,,2013-05-06 14:51:00,
2013-05-06 08:01:00,34.0,33.0,-100.00,WNW,296,0.0,3.0,97,-99.99,,,-99.99,,2013-05-06 15:01:00,
2013-05-06 08:11:00,34.0,33.0,-100.00,WNW,296,0.0,3.0,97,-99.99,,,-99.99,,2013-05-06 15:11:00,
2013-05-06 08:21:00,34.0,33.0,-100.00,SSE,151,1.0,5.0,96,-99.99,,,-99.99,,2013-05-06 15:21:00,
2013-05-06 08:33:00,34.0,33.0,-100.00,SSE,151,1.0,5.0,96,-99.99,,,-99.99,,2013-05-06 15:33:00,
2013-05-06 08:42:00,34.0,33.0,-100.00,SW,230,0.0,2.0,97,-99.99,,,-99.99,,2013-05-06 15:42:00,
2013-05-06 08:53:00,35.0,34.0,-100.00,WNW,282,0.0,2.0,96,-99.99,,,-99.99,,2013-05-06 15:53:00,
2013-05-06 09:03:00,35.0,34.0,-100.00,WNW,282,0.0,2.0,96,-99.99,,,-99.99,,2013-05-06 16:03:00,
2013-05-06 09:13:00,35.0,34.0,-100.00,WNW,282,0.0,2.0,96,-99.99,,,-99.99,,2013-05-06 16:13:00,
2013-05-06 09:23:00,33.0,32.0,-100.00,SSW,193,0.0,1.0,97,-99.99,,,-99.99,,2013-05-06 16:23:00,
2013-05-06 09:32:00,33.0,32.0,-100.00,South,174,0.0,3.0,97,-99.99,,,-99.99,,2013-05-06 16:32:00,
2013-05-06 09:41:00,33.0,32.0,-100.00,South,174,0.0,3.0,97,-99.99,,,-99.99,,2013-05-06 16:41:00,
2013-05-06 09:52:00,33.0,32.0,-100.00,South,188,0.0,1.0,97,-99.99,,,-99.99,,2013-05-06 16:52:00,
2013-05-06 10:02:00,33.0,32.0,-100.00,South,188,0.0,1.0,97,-99.99,,,-99.99,,2013-05-06 17:02:00,
2013-05-06 10:12:00,33.0,32.0,-100.00,South,188,0.0,1.0,97,-99.99,,,-99.99,,2013-05-06 17:12:00,
2013-05-06 11:52:00,38.0,37.0,-100.00,NW,315,0.0,5.0,97,-99.99,,,-99.99,,2013-05-06 18:52:00,
2013-05-06 12:01:00,38.0,37.0,-100.00,NW,315,0.0,5.0,97,-99.99,,,-99.99,,2013-05-06 19:01:00,
2013-05-06 12:11:00,38.0,37.0,-100.00,NW,315,0.0,5.0,97,-99.99,,,-99.99,,2013-05-06 19:11:00,
2013-05-06 12:22:00,38.0,37.0,-100.00,NW,315,0.0,5.0,97,-99.99,,,-99.99,,2013-05-06 19:22:00,
2013-05-06 12:32:00,39.0,38.0,-100.00,NW,319,1.0,3.0,96,-99.99,,,-99.99,,2013-05-06 19:32:00,
2013-05-06 12:42:00,39.0,38.0,-100.00,NW,319,1.0,3.0,96,-99.99,,,-99.99,,2013-05-06 19:42:00,
2013-05-06 12:52:00,39.0,38.0,-100.00,North,356,1.0,4.0,96,-99.99,,,-99.99,,2013-05-06 19:52:00,
2013-05-06 13:01:00,39.0,38.0,-100.00,North,356,1.0,4.0,96,-99.99,,,-99.99,,2013-05-06 20:01:00,
2013-05-06 13:11:00,39.0,38.0,-100.00,North,356,1.0,4.0,96,-99.99,,,-99.99,,2013-05-06 20:11:00,
2013-05-06 13:21:00,39.0,38.0,-100.00,North,356,1.0,4.0,96,-99.99,,,-99.99,,2013-05-06 20:21:00,
2013-05-06 13:32:00,40.0,38.0,-100.00,NW,313,1.0,3.0,95,-99.99,,,-99.99,,2013-05-06 20:32:00,
2013-05-06 13:42:00,40.0,38.0,-100.00,NW,313,1.0,3.0,95,-99.99,,,-99.99,,2013-05-06 20:42:00,
2013-05-06 13:52:00,40.0,38.0,-100.00,NW,313,1.0,3.0,95,-99.99,,,-99.99,,2013-05-06 20:52:00,
2013-05-06 14:01:00,40.0,38.0,-100.00,NW,313,1.0,3.0,95,-99.99,,,-99.99,,2013-05-06 21:01:00,
2013-05-06 14:21:00,41.0,40.0,-100.00,West,271,1.0,4.0,95,-99.99,,,-99.99,,2013-05-06 21:21:00,
2013-05-06 14:32:00,41.0,39.0,-100.00,West,278,1.0,4.0,94,-99.99,,,-99.99,,2013-05-06 21:32:00,
2013-05-06 14:42:00,41.0,39.0,-100.00,West,278,1.0,4.0,94,-99.99,,,-99.99,,2013-05-06 21:42:00,
2013-05-06 14:53:00,40.0,38.0,-100.00,WSW,251,0.0,3.0,94,-99.99,,,-99.99,,2013-05-06 21:53:00,
2013-05-06 15:03:00,40.0,38.0,-100.00,WSW,251,0.0,3.0,94,-99.99,,,-99.99,,2013-05-06 22:03:00,
2013-05-06 15:12:00,41.0,39.0,-100.00,WNW,288,0.0,4.0,94,-99.99,,,-99.99,,2013-05-06 22:12:00,
2013-05-06 15:22:00,41.0,39.0,-100.00,SSW,196,0.0,3.0,94,-99.99,,,-99.99,,2013-05-06 22:22:00,
2013-05-06 15:33:00,41.0,39.0,-100.00,WSW,258,0.0,3.0,94,-99.99,,,-99.99,,2013-05-06 22:33:00,
2013-05-06 15:45:00,41.0,39.0,-100.00,WSW,258,1.0,4.0,94,-99.99,,,-99.99,,2013-05-06 22:45:00,
2013-05-06 15:52:00,41.0,39.0,-100.00,WSW,258,1.0,4.0,94,-99.99,,,-99.99,,2013-05-06 22:52:00,
2013-05-06 16:02:00,40.0,38.0,-100.00,ENE,64,3.0,9.0,94,-99.99,,,-99.99,,2013-05-06 23:02:00,
2013-05-06 16:12:00,40.0,38.0,-100.00,ENE,64,3.0,9.0,94,-99.99,,,-99.99,,2013-05-06 23:12:00,
2013-05-06 16:22:00,40.0,38.0,-100.00,NE,47,2.0,7.0,94,-99.99,,,-99.99,,2013-05-06 23:22:00,
2013-05-06 16:31:00,40.0,38.0,-100.00,NW,322,1.0,4.0,94,-99.99,,,-99.99,,2013-05-06 23:31:00,
2013-05-06 16:41:00,40.0,38.0,-100.00,NW,305,1.0,4.0,94,-99.99,,,-99.99,,2013-05-06 23:41:00,
2013-05-06 16:52:00,40.0,38.0,-100.00,NW,308,1.0,5.0,93,-99.99,,,-99.99,,2013-05-06 23:52:00,
2013-05-06 17:01:00,41.0,39.0,-100.00,WNW,284,1.0,4.0,93,-99.99,,,-99.99,,2013-05-07 00:01:00,
2013-05-06 17:11:00,41.0,39.0,-100.00,West,275,1.0,4.0,91,-99.99,,,-99.99,,2013-05-07 00:11:00,
2013-05-06 17:21:00,42.0,40.0,-100.00,NNW,337,1.0,4.0,91,-99.99,,,-99.99,,2013-05-07 00:21:00,
2013-05-06 17:31:00,42.0,40.0,-100.00,NNW,337,1.0,4.0,91,-99.99,,,-99.99,,2013-05-07 00:31:00,
2013-05-06 17:41:00,42.0,39.0,-100.00,North,8,1.0,3.0,90,-99.99,,,-99.99,,2013-05-07 00:41:00,
2013-05-06 17:51:00,42.0,39.0,-100.00,North,359,1.0,3.0,89,-99.99,,,-99.99,,2013-05-07 00:51:00,
2013-05-06 18:01:00,42.0,38.0,-100.00,North,1,1.0,4.0,87,-99.99,,,-99.99,,2013-05-07 01:01:00,
2013-05-06 18:11:00,42.0,39.0,-100.00,West,265,1.0,5.0,88,-99.99,,,-99.99,,2013-05-07 01:11:00,
2013-05-06 18:21:00,42.0,38.0,-100.00,NNW,336,1.0,3.0,87,-99.99,,,-99.99,,2013-05-07 01:21:00,
2013-05-06 18:31:00,42.0,38.0,-100.00,NNW,333,0.0,3.0,86,-99.99,,,-99.99,,2013-05-07 01:31:00,
2013-05-06 18:42:00,42.0,38.0,-100.00,NNW,333,0.0,3.0,86,-99.99,,,-99.99,,2013-05-07 01:42:00,
2013-05-06 18:52:00,42.0,38.0,-100.00,East,80,1.0,3.0,87,-99.99,,,-99.99,,2013-05-07 01:52:00,
2013-05-06 19:02:00,42.0,38.0,-100.00,East,80,1.0,3.0,87,-99.99,,,-99.99,,2013-05-07 02:02:00,
2013-05-06 19:11:00,41.0,38.0,-100.00,ENE,71,1.0,3.0,89,-99.99,,,-99.99,,2013-05-07 02:11:00,
2013-05-06 19:21:00,41.0,38.0,-100.00,ENE,71,1.0,3.0,89,-99.99,,,-99.99,,2013-05-07 02:21:00,
2013-05-06 19:31:00,41.0,38.0,-100.00,NE,48,2.0,5.0,89,-99.99,,,-99.99,,2013-05-07 02:31:00,
2013-05-06 19:41:00,41.0,38.0,-100.00,NE,55,2.0,5.0,90,-99.99,,,-99.99,,2013-05-07 02:41:00,
2013-05-06 19:42:00,39.0,37.0,-100.00,ENE,62,1.0,4.0,92,-99.99,,,-99.99,,2013-05-07 02:42:00,
2013-05-06 19:52:00,40.0,38.0,-100.00,ENE,65,1.0,3.0,91,-99.99,,,-99.99,,2013-05-07 02:52:00,
2013-05-06 20:01:00,40.0,38.0,-100.00,NE,47,1.0,3.0,91,-99.99,,,-99.99,,2013-05-07 03:01:00,
2013-05-06 20:11:00,39.0,37.0,-100.00,ENE,62,1.0,4.0,92,-99.99,,,-99.99,,2013-05-07 03:11:00,
2013-05-06 20:21:00,39.0,37.0,-100.00,ENE,62,1.0,4.0,92,-99.99,,,-99.99,,2013-05-07 03:21:00,
2013-05-06 20:32:00,39.0,37.0,-100.00,ENE,62,1.0,4.0,92,-99.99,,,-99.99,,2013-05-07 03:32:00,
2013-05-06 20:53:00,38.0,36.0,-100.00,NNW,346,0.0,2.0,93,-99.99,,,-99.99,,2013-05-07 03:53:00,
2013-05-06 21:02:00,38.0,36.0,-100.00,WSW,256,0.0,2.0,93,-99.99,,,-99.99,,2013-05-07 04:02:00,
2013-05-06 21:12:00,38.0,36.0,-100.00,SE,141,0.0,1.0,93,-99.99,,,-99.99,,2013-05-07 04:12:00,
2013-05-06 21:23:00,38.0,36.0,-100.00,North,8,0.0,3.0,94,-99.99,,,-99.99,,2013-05-07 04:23:00,
2013-05-06 21:33:00,38.0,36.0,-100.00,North,10,0.0,2.0,94,-99.99,,,-99.99,,2013-05-07 04:33:00,
2013-05-06 21:42:00,37.0,36.0,-100.00,North,7,0.0,1.0,95,-99.99,,,-99.99,,2013-05-07 04:42:00,
2013-05-06 21:52:00,37.0,36.0,-100.00,North,357,0.0,2.0,94,-99.99,,,-99.99,,2013-05-07 04:52:00,
2013-05-06 22:02:00,37.0,36.0,-100.00,North,-999,0.0,0.0,95,-99.99,,,-99.99,,2013-05-07 05:02:00,
2013-05-06 22:12:00,37.0,36.0,-100.00,North,-999,0.0,0.0,95,-99.99,,,-99.99,,2013-05-07 05:12:00,
2013-05-06 22:22:00,37.0,36.0,-100.00,SSE,168,0.0,1.0,95,-99.99,,,-99.99,,2013-05-07 05:22:00,
2013-05-06 22:32:00,37.0,36.0,-100.00,ESE,123,0.0,2.0,95,-99.99,,,-99.99,,2013-05-07 05:32:00,
2013-05-06 22:42:00,37.0,36.0,-100.00,SSW,200,0.0,2.0,95,-99.99,,,-99.99,,2013-05-07 05:42:00,
2013-05-06 22:51:00,37.0,36.0,-100.00,North,11,0.0,2.0,95,-99.99,,,-99.99,,2013-05-07 05:51:00,
2013-05-06 23:02:00,37.0,36.0,-100.00,SSW,193,0.0,1.0,95,-99.99,,,-99.99,,2013-05-07 06:02:00,
2013-05-06 23:12:00,37.0,36.0,-100.00,SSW,193,0.0,1.0,95,-99.99,,,-99.99,,2013-05-07 06:12:00,
2013-05-06 23:21:00,36.0,35.0,-100.00,South,171,0.0,1.0,96,-99.99,,,-99.99,,2013-05-07 06:21:00,
2013-05-06 23:32:00,36.0,35.0,-100.00,SSE,168,0.0,2.0,96,-99.99,,,-99.99,,2013-05-07 06:32:00,
2013-05-06 23:42:00,36.0,35.0,-100.00,SSE,168,0.0,1.0,96,-99.99,,,-99.99,,2013-05-07 06:42:00,
2013-05-06 23:52:00,36.0,35.0,-100.00,SSE,165,0.0,2.0,96,-99.99,,,-99.99,,2013-05-07 06:52:00,